AirNav   Everest Fuels
 
 1395 users online  

MO41 Landing Pad
Troy, Missouri, USA

GOING TO TROY?


FAA INFORMATION EFFECTIVE 31 DECEMBER 2020

Location

FAA Identifier: MO41
Lat/Long: 38-58-55.6700N 090-57-47.1100W
38-58.927833N 090-57.785167W
38.9821306,-90.9630861
(estimated)
Elevation: 520 ft. / 158 m (estimated)
Variation: 01E (1995)
Time zone: UTC -6 (UTC -5 during Daylight Saving Time)
Zip code: 63379

Heliport Operations

Heliport use: Private use, MEDICAL USE.
Activation date: 10/1997
Control tower: no
ARTCC: KANSAS CITY CENTER
FSS: SAINT LOUIS FLIGHT SERVICE STATION
Attendance: CONTINUOUS
Wind indicator: yes
Segmented circle: no
Lights: FOR PERIMETER AND FLOOD LGTS CALL 314-528-8551.

Nearby radio navigation aids

VOR radial/distance  VOR name  Freq  Var
FTZr356/17.3FORISTELL VORTAC110.8005E
STLr287/23.6ST LOUIS VORTAC117.4001E

Heliport Services

Runway Information

Helipad H1

Dimensions: 50 x 50 ft. / 15 x 15 m
Surface: concrete
Runway edge lights: PERI
INGROUND GREEN LED LGTS AND FLOOD LGTS.
Latitude: 38-58.927833N
Longitude: 090-57.785167W
Elevation: 520.0 ft.
Traffic pattern: leftleft

Heliport Ownership and Management from official FAA records

Ownership: Privately-owned
Owner: LINCOLN COUNTY MEMORIAL HOSP.
1000 EAST CHERRY STREET
TROY, MO 63379
Phone 314-528-8551
MERCY HOSPITAL LINCOLN LEASES THIS PROPERTY FROM LINCOLN COUNTY MEDICAL CENTER AND IS IN CHARGE OF ALL OPERATIONS.
Manager: MARK THORN
1000 EAST CHERRY STREET
TROY, MO 63379
Phone 314-528-8551

Additional Remarks

OWNER DESIRES HELIPORT NOT BE CHARTED.
FOR CD CTC ST LOUIS APCH AT 314-890-1018.

Instrument Procedures

There are no published instrument procedures at MO41.

Some nearby airports with instrument procedures:

KFYG - Washington Regional Airport (24 nm S)
KSUS - Spirit of St Louis Airport (24 nm SE)
KSET - St Charles County Smartt Airport (25 nm E)
H19 - Bowling Green Municipal Airport (26 nm NW)
1H0 - Creve Coeur Airport (26 nm SE)
 
Loc | Ops | Rwys | IFR | FBO | Links
Com | Nav | Svcs | Stats | Notes
Area around MO41 (Landing Pad)
 
Road maps at: MapQuest Bing Google
 
Aerial photo
No photo
 
Sectional chart

 
Airport distance calculator
Flying to Landing Pad? Find the distance to fly.

From to MO41

Sunrise and sunset
Times for 15-Jan-2021
 Local
(UTC-6)
 Zulu
(UTC)
Morning civil twilight06:5312:53
Sunrise07:2213:22
Sunset17:0523:05
Evening civil twilight17:3423:34

Current date and time
Zulu (UTC)  15-Jan-2021 17:49:39
Local (UTC-6)  15-Jan-2021 11:49:39
 
METAR
KFYG 
24nm S 
151655Z AUTO 22010KT 1 1/2SM -SN SCT015 00/00 A2948 RMK AO2 P0004
KSUS 
25nm SE 
151654Z 23010G21KT 1 1/4SM R08R/5500VP6000FT -SN BR FEW015 OVC019 01/M02 A2948 RMK AO2 PK WND 22026/1616 SLP990 P0000 T00061017
KSET 
25nm E 
151741Z AUTO 22014G21KT 2SM -SN BR BKN012 BKN018 OVC026 02/M01 A2946 RMK AO2 P0000 T00171006
KSTL 
31nm SE 
151739Z 22011KT 1 1/2SM -SN BR BKN013 OVC019 01/M01 A2947 RMK AO2 P0000 T00111011
KPPQ 
40nm N 
151735Z AUTO 21011G16KT 7SM BKN010 OVC016 01/00 A2941 RMK AO2 T00060001
KMYJ 
41nm W 
151735Z AUTO 24015G20KT 1 1/4SM BKN010 OVC014 00/M01 A2940 RMK AO2
KALN 
44nm E 
151730Z 23011G15KT 2SM -SN OVC011 01/00 A2948
KCPS 
45nm SE 
151653Z 22011G17KT 2 1/2SM -SN BR SCT017 BKN023 OVC029 01/M01 A2951 RMK AO2 SNB30 SLP995 P0000 T00111011
TAF
KSUS 
25nm SE 
151450Z 1515/1612 24010G18KT 3SM -SN OVC025 TEMPO 1518/1522 1SM -SN BR VV009 FM160100 30009KT 6SM -SN BR OVC010
NOTAMs
Click for the latest NOTAMs
NOTAMs are issued by the DoD/FAA and will open in a separate window not controlled by AirNav.

 

 
 

Would you like to see your business listed on this page?

 If your business provides an interesting product or service to pilots, flight crews, aircraft, or users of the Landing Pad, you should consider listing it here.  To start the listing process, click on the button below
 
Add a business
 

Other Pages about Landing Pad

Update a link
 
Copyright © AirNav, LLC. All rights reserved. Privacy Policy  Contact